[[{"header":{"parameterUnit":"m.s-1","parameterCategory":1,"la1":30.2991,"la2":30.254,"lo1":-89.0895,"lo2":-89.0444,"dy":0.0017,"dx":0.0017,"nx":28,"ny":28,"refTime":"2025-11-15T03:00:00:Z","depth":0,"parameterNumber":2,"parameterNumberName":"U-component_of_WINDS"},"data":[0,0,0,0,0,0,0,0,0,0,0,0,0,0,0,0,0,0,0,0,0,0,0,0,0,0,0,0,0,0,0,0,0,0,0,0,0,0,0,0,0,0,0,0,0,0,0,0,0,0,0,0,0,0,0,0,0,0,0.9067,0.9067,0,0.9079,0.9079,0.9079,0.9072,0.9072,0.9072,0.9071,0.9082,0.9083,0.9083,0,0,0,0,0,0,0,0,0,0,0,0,0,0.9035,0.9036,0.9066,0.9067,0.9067,0.9079,0.9079,0.9079,0.9072,0.9072,0.9072,0.9071,0.9082,0.9083,0.9084,0,0,0,0,0,0,0,0,0,0,0,0,0,0.9048,0.9036,0.9066,0.9065,0.9065,0.9079,0.9079,0.9079,0.9072,0.9072,0.9071,0.9071,0.9082,0.9083,0.9084,0.9099,0,0,0.9086,0.9087,0,0,0,0,0,0,0,0,0.9048,0.9049,0.9065,0.9065,0.9065,0.9074,0.9072,0.9086,0.9073,0.9069,0.9071,0.9071,0.908,0.9081,0.9084,0.91,0.91,0.9087,0.9087,0.9087,0.9088,0,0,0,0,0,0,0,0.9047,0.9049,0.9071,0.9065,0.9065,0.9063,0.9064,0.9075,0.9077,0.907,0.9069,0.9071,0.908,0.9083,0.9084,0.91,0.9086,0.9087,0.9088,0.9088,0.9129,0.913,0,0,0,0,0,0,0.9046,0.9048,0.9071,0.9072,0.9055,0.9064,0.9065,0.9071,0.9077,0.9078,0.9071,0.9071,0.9082,0.9083,0.9085,0.9103,0.9087,0.9088,0.9089,0.9129,0.9129,0.913,0,0,0,0,0,0,0.9046,0.9048,0.907,0.906,0.9063,0.9065,0.9072,0.9072,0.9075,0.9078,0.9079,0.9075,0.9082,0.9083,0.9096,0.9103,0.9089,0.909,0.9128,0.9129,0.913,0.914,0,0,0,0,0,0,0.9045,0.9048,0.9054,0.906,0.9063,0.9082,0.9072,0.9072,0.9077,0.9076,0.9082,0.9082,0.9081,0.9094,0.9097,0.9104,0.909,0.9127,0.9128,0.9129,0.9139,0.9141,0.9143,0,0,0,0,0,0.9044,0.9057,0.9055,0.9058,0.9071,0.9082,0.9084,0.9084,0.9078,0.9084,0.9086,0.9082,0.9102,0.9096,0.9098,0.9106,0.9127,0.9128,0.9129,0.9138,0.9141,0.9143,0,0,0,0,0,0,0.9051,0.9057,0.9055,0.9071,0.9076,0.9081,0.9089,0.9086,0.9093,0.9092,0.909,0.9092,0.9104,0.9107,0.9099,0.9122,0.9114,0.9115,0.912,0.9122,0.9124,0.9123,0.9091,0,0,0,0,0,0.9055,0.9064,0.9068,0.9082,0.9084,0.9086,0.9091,0.909,0.9096,0.9098,0.91,0.9105,0.9113,0.9118,0.9125,0.914,0.914,0.9146,0.9148,0.915,0.9151,0.9159,0.9161,0.9134,0.9134,0.9134,0,0,0.9062,0.9066,0.9072,0.9083,0.9087,0.9096,0.9088,0.9098,0.9104,0.9099,0.9111,0.9113,0.9118,0.9132,0.9138,0.9134,0.9159,0.9152,0.9153,0.9153,0.916,0.9163,0.9165,0.9135,0.9135,0.9135,0,0,0.908,0.9084,0.9095,0.91,0.9106,0.9107,0.911,0.9116,0.9117,0.9129,0.9125,0.9133,0.9146,0.915,0.9153,0.9172,0.9169,0.9175,0.9185,0.9192,0.9194,0.9196,0.9203,0.9205,0.9176,0.9176,0.9176,0,0.9087,0.9101,0.9101,0.9111,0.9116,0.9113,0.9123,0.9128,0.9136,0.9139,0.9135,0.9151,0.9154,0.9168,0.9173,0.9177,0.9179,0.9174,0.9194,0.9196,0.9198,0.9204,0.9206,0.9177,0.9177,0.9177,0.9177,0,0.911,0.912,0.9128,0.9137,0.9142,0.9153,0.9154,0.916,0.9159,0.916,0.9172,0.9176,0.9184,0.9187,0.9186,0.9201,0.9199,0.9194,0.9186,0.9201,0.9207,0.9209,0.9178,0.9178,0.9177,0.9177,0,0,0.9132,0.9141,0.9144,0.9148,0.9155,0.9162,0.9172,0.918,0.9185,0.9191,0.9199,0.921,0.9206,0.921,0.921,0.9216,0.9231,0.9211,0.9211,0.9214,0.9247,0.925,0.9253,0.9229,0.9229,0.9229,0.9247,0,0.915,0.9168,0.9169,0.9185,0.9194,0.9191,0.9199,0.9204,0.9206,0.9213,0.9215,0.9223,0.9217,0.9219,0.9226,0.9228,0.9237,0.9226,0.9235,0.9236,0.9234,0.9256,0.9259,0.9275,0.9249,0.9249,0.9249,0,0.9173,0.918,0.9198,0.9203,0.9207,0.9215,0.9222,0.9229,0.9235,0.9235,0.924,0.9238,0.9248,0.924,0.9253,0.9246,0.925,0.9251,0.9252,0.9252,0.9243,0.9256,0.928,0.9282,0.9253,0.9253,0.9253,0,0.9187,0.9201,0.9213,0.9216,0.9223,0.9229,0.9232,0.9237,0.9242,0.9248,0.9251,0.9258,0.9262,0.9267,0.9267,0.9262,0.9281,0.9273,0.9281,0.9281,0.9284,0.9284,0.9309,0.9288,0.9288,0.9288,0.9288,0,0.9206,0.9216,0.9219,0.9226,0.9238,0.9239,0.925,0.9253,0.9257,0.9264,0.9262,0.9269,0.9269,0.9276,0.9276,0.9286,0.9288,0.9289,0.9288,0.9289,0.9288,0.929,0.9289,0.9288,0.9288,0.9288,0.9288,0,0.9223,0.9225,0.9238,0.9244,0.9246,0.9254,0.9259,0.9265,0.9267,0.9277,0.9279,0.9281,0.9289,0.929,0.9299,0.9299,0.9312,0.9311,0.931,0.931,0.9317,0.9316,0.9344,0.9347,0.9325,0.9325,0.9325,0,0.9235,0.9243,0.925,0.9255,0.9258,0.9267,0.9272,0.9272,0.9277,0.9284,0.929,0.9298,0.9304,0.9317,0.9319,0.9326,0.9325,0.9334,0.9326,0.9326,0.9324,0.9324,0.9324,0.9335,0.9336,0.9336,0.9336,0,0.9255,0.9256,0.9263,0.9272,0.9278,0.9284,0.929,0.9294,0.9295,0.9301,0.931,0.9315,0.9324,0.9332,0.9339,0.9341,0.9339,0.9339,0.9341,0.9341,0.934,0.934,0.9314,0.9338,0.9338,0.9337,0.9337,0.9337,0.9269,0.9276,0.9282,0.9291,0.9295,0.9301,0.9308,0.931,0.9318,0.9326,0.9326,0.9335,0.934,0.9349,0.9352,0.9359,0.9356,0.9359,0.936,0.936,0.9361,0.9339,0.936,0.936,0.936,0.936,0.936,0,0.9289,0.9293,0.9301,0.9309,0.9316,0.9314,0.932,0.9326,0.9334,0.9339,0.9345,0.9355,0.9362,0.9365,0.9373,0.9377,0.9376,0.9379,0.9378,0.9379,0.9363,0.9361,0.938,0.938,0.938,0.938,0.938,0.938,0.93,0.9312,0.9313,0.9327,0.9331,0.934,0.9344,0.9349,0.9353,0.9364,0.937,0.9372,0.9377,0.9384,0.9391,0.9391,0.9394,0.9397,0.9397,0.9382,0.938,0.9378,0.9376,0.9398,0.9398,0.9412,0.9412,0.9412]},{"header":{"parameterUnit":"m.s-1","parameterCategory":1,"la1":30.2991,"la2":30.254,"lo1":-89.0895,"lo2":-89.0444,"dy":0.0017,"dx":0.0017,"nx":28,"ny":28,"refTime":"2025-11-15T03:00:00:Z","depth":0,"parameterNumber":3,"parameterNumberName":"V-component_of_WINDS"},"data":[0,0,0,0,0,0,0,0,0,0,0,0,0,0,0,0,0,0,0,0,0,0,0,0,0,0,0,0,0,0,0,0,0,0,0,0,0,0,0,0,0,0,0,0,0,0,0,0,0,0,0,0,0,0,0,0,0,0,1.4673,1.4673,0,1.4686,1.4686,1.4686,1.4668,1.4667,1.4666,1.4666,1.4678,1.4679,1.468,0,0,0,0,0,0,0,0,0,0,0,0,0,1.4631,1.4631,1.4673,1.4673,1.4673,1.4686,1.4686,1.4686,1.4668,1.4667,1.4666,1.4665,1.4678,1.4679,1.468,0,0,0,0,0,0,0,0,0,0,0,0,0,1.4647,1.4632,1.4673,1.4665,1.4665,1.4686,1.4686,1.4686,1.4668,1.4667,1.4666,1.4665,1.4677,1.4679,1.468,1.4709,0,0,1.4684,1.4685,0,0,0,0,0,0,0,0,1.4646,1.4648,1.4666,1.4666,1.4665,1.4674,1.4676,1.4694,1.4668,1.4667,1.4666,1.4664,1.4677,1.4679,1.4683,1.4709,1.471,1.4684,1.4685,1.4686,1.4686,0,0,0,0,0,0,0,1.4645,1.4648,1.4678,1.4667,1.4666,1.4661,1.4662,1.4679,1.4677,1.4667,1.4665,1.4667,1.4677,1.4682,1.4683,1.471,1.4684,1.4686,1.4686,1.4687,1.476,1.4761,0,0,0,0,0,0,1.4645,1.4647,1.4678,1.4678,1.4653,1.4663,1.4664,1.4672,1.4677,1.4677,1.4668,1.4666,1.468,1.4682,1.4684,1.4718,1.4686,1.4687,1.4688,1.4759,1.4761,1.4762,0,0,0,0,0,0,1.4644,1.4648,1.4677,1.4662,1.4666,1.4665,1.4674,1.4673,1.4678,1.4678,1.4678,1.4674,1.4679,1.4682,1.4703,1.4718,1.4688,1.4689,1.4758,1.476,1.4761,1.4786,0,0,0,0,0,0,1.4643,1.4647,1.4659,1.4663,1.4667,1.4696,1.4675,1.4674,1.4681,1.4679,1.4683,1.4683,1.4679,1.4701,1.4704,1.472,1.469,1.4756,1.4759,1.4761,1.4784,1.4789,1.4793,0,0,0,0,0,1.4641,1.4665,1.4659,1.4663,1.468,1.4697,1.4699,1.4694,1.4682,1.4693,1.4693,1.4683,1.4716,1.4703,1.4707,1.4723,1.4755,1.4758,1.476,1.4782,1.4788,1.4792,0,0,0,0,0,0,1.4662,1.4665,1.4659,1.4685,1.4691,1.4694,1.4708,1.47,1.4709,1.4707,1.47,1.4701,1.4723,1.4725,1.4711,1.4751,1.4734,1.4737,1.4749,1.4754,1.4758,1.4758,1.4691,0,0,0,0,0,1.4669,1.4683,1.4685,1.4707,1.4711,1.4709,1.4716,1.4711,1.4717,1.472,1.4721,1.4727,1.4739,1.4747,1.4757,1.4784,1.4785,1.4797,1.4801,1.4805,1.4808,1.4823,1.4828,1.477,1.477,1.477,0,0,1.4685,1.4688,1.4697,1.4712,1.4716,1.473,1.4711,1.4727,1.4737,1.4722,1.4742,1.4743,1.4749,1.4774,1.4784,1.4776,1.4824,1.4808,1.4811,1.4812,1.4826,1.4831,1.4836,1.4771,1.4771,1.4771,0,0,1.4721,1.4725,1.4744,1.4749,1.4756,1.4754,1.4759,1.4763,1.4764,1.4784,1.4773,1.4785,1.4806,1.481,1.4816,1.4854,1.4845,1.4857,1.4879,1.4894,1.4899,1.4903,1.4917,1.4922,1.486,1.4861,1.4861,0,1.4739,1.476,1.4755,1.4771,1.4778,1.4766,1.4785,1.479,1.48,1.4804,1.4795,1.482,1.4823,1.4849,1.4858,1.4863,1.4868,1.4857,1.4898,1.4902,1.4906,1.4919,1.4925,1.4862,1.4862,1.4862,1.4862,0,1.4782,1.4797,1.4812,1.4823,1.4831,1.4849,1.4846,1.4855,1.485,1.4849,1.487,1.4874,1.4885,1.4891,1.4886,1.4916,1.491,1.49,1.4882,1.4913,1.4926,1.4931,1.4864,1.4864,1.4863,1.4863,0,0,1.4831,1.4839,1.4844,1.4849,1.4856,1.4867,1.4885,1.4897,1.4905,1.4912,1.4926,1.4944,1.4934,1.494,1.4936,1.4949,1.4979,1.4936,1.4936,1.4944,1.5013,1.5021,1.5027,1.4973,1.4974,1.4975,1.5012,0,1.4867,1.4897,1.4893,1.4922,1.4936,1.4925,1.494,1.4946,1.4946,1.4958,1.4958,1.497,1.4957,1.496,1.4972,1.4973,1.4993,1.497,1.4987,1.4987,1.4986,1.5033,1.5042,1.5077,1.5017,1.5018,1.5018,0,1.4912,1.4922,1.4953,1.4959,1.4964,1.4978,1.4989,1.5,1.5006,1.5005,1.5013,1.5006,1.5023,1.5006,1.5029,1.5014,1.5021,1.5022,1.5023,1.5024,1.5005,1.5036,1.5088,1.5093,1.5026,1.5025,1.5025,0,1.4945,1.4966,1.4987,1.4992,1.4998,1.5009,1.5012,1.5017,1.5025,1.5034,1.5039,1.505,1.5056,1.5064,1.5061,1.5048,1.5086,1.5068,1.5085,1.5086,1.5094,1.5093,1.5147,1.5098,1.5098,1.5098,1.5098,0,1.4986,1.5005,1.5002,1.5015,1.5037,1.5032,1.5053,1.5055,1.506,1.5073,1.5064,1.5076,1.5071,1.5083,1.508,1.5101,1.5103,1.5103,1.5102,1.5104,1.5104,1.5108,1.5106,1.5099,1.5099,1.5098,1.5098,0,1.5025,1.5024,1.5047,1.5052,1.5054,1.5069,1.5073,1.5085,1.5085,1.5102,1.5106,1.5105,1.5119,1.5116,1.5131,1.513,1.5155,1.5151,1.5153,1.5152,1.517,1.5169,1.5229,1.5237,1.5182,1.5183,1.5183,0,1.5051,1.5066,1.5073,1.5081,1.5086,1.5099,1.5107,1.5103,1.5111,1.512,1.5131,1.5145,1.5155,1.5177,1.5178,1.519,1.5186,1.5207,1.5188,1.5189,1.5187,1.5186,1.5188,1.521,1.5211,1.5211,1.5212,0,1.5098,1.5097,1.5108,1.512,1.513,1.5139,1.5147,1.5155,1.5151,1.5161,1.5175,1.5184,1.5199,1.5213,1.5224,1.5227,1.5219,1.5218,1.5223,1.5225,1.5225,1.5225,1.5163,1.5216,1.5216,1.5215,1.5215,1.5215,1.5131,1.5144,1.5151,1.5165,1.5171,1.5179,1.5191,1.5192,1.5204,1.5217,1.5214,1.523,1.5237,1.5251,1.5255,1.5268,1.526,1.5267,1.5269,1.5271,1.5273,1.5223,1.527,1.527,1.5269,1.5269,1.5269,0,1.5177,1.5182,1.5194,1.5206,1.5217,1.5209,1.5218,1.5227,1.5242,1.5249,1.526,1.5276,1.5289,1.5291,1.5304,1.5314,1.531,1.5317,1.5316,1.5317,1.5279,1.5274,1.5319,1.5319,1.5319,1.5319,1.5319,1.5319,1.5203,1.5224,1.5224,1.5248,1.5252,1.5268,1.5274,1.5281,1.5287,1.5306,1.5317,1.5319,1.5324,1.5336,1.5348,1.5348,1.5353,1.5361,1.536,1.5325,1.532,1.5315,1.531,1.5363,1.5363,1.5398,1.5398,1.5398]}]]